Location: Berg
(48.4333°N, 13.9167°E)
Time: 11:06:56
(UTC+00:00)

Daily predictions for brighter satellites

Satellite Brightness Start Highest point End
(mag) Time Altitude Azimuth Time Altitude Azimuth Time Altitude Azimuth
Cosmos 158 Rocket 4.4 17:34:17 10° NNW 17:39:35 70° WSW 17:44:42 10° SSE
Cosmos 1689 Rocket 4.2 17:37:39 10° N 17:40:24 33° WNW 17:43:09 10° SW
H-2A R/B 2.2 17:36:09 10° SE 17:40:56 52° ENE 17:45:53 10° N
ARGOS 3.6 17:36:19 10° SE 17:41:21 43° ENE 17:46:25 10° N
CZ-2C R/B 3.9 17:38:57 10° NE 17:43:02 21° E 17:47:09 10° SE
CENTAUR R/B 3.9 17:36:06 10° NW 17:43:05 37° NNE 17:50:54 10° E
SL-16 R/B 4.4 17:39:11 10° NW 17:44:00 29° WSW 17:48:48 10° SSW
ATLAS 5 CENTAUR R/B 2.2 17:41:33 10° NW 17:44:11 74° SW 17:51:25 10° SE
Cosmos 1707 3.7 17:42:15 10° NNE 17:45:36 27° ENE 17:48:54 10° SE
Cosmos 1743 3.5 17:43:35 10° SSW 17:47:21 56° WNW 17:51:09 10° N
Iridium 4 Rocket 3.5 17:43:11 10° S 17:48:04 77° E 17:53:29 10° N
ATLAS 3B R/B 4.2 17:43:13 10° NW 17:48:27 23° NNE 17:53:48 10° ENE
SJ-6B 4.2 17:46:45 10° ESE 17:49:30 20° ENE 17:52:18 10° NNE
Sich 1 Rocket 4.2 17:45:28 10° SSE 17:49:32 35° E 17:53:39 10° NNE
USA 238 DEB 4.4 17:44:26 10° NW 17:51:13 44° NE 17:58:11 10° ESE
USA 238 4.4 17:44:33 10° NW 17:51:19 44° NE 17:58:16 10° ESE
ATLAS CENTAUR R/B 3.7 17:50:45 10° W 17:53:43 20° NW 17:56:36 10° NNE
Cosmos 2263 Rocket 2.1 17:50:38 10° SSW 17:56:08 69° ESE 18:01:43 10° NNE
Meteor 2-9 Rocket 4.3 17:53:15 10° S 17:59:05 74° E 18:04:53 10° NNE
USA 102 4.3 17:54:17 10° SSE 18:00:18 85° ENE 18:03:53 10° NNW
SL-08 RB Rocket 4.1 17:56:42 10° SE 18:01:01 42° ENE 18:05:20 10° N
Cosmos 1844 Rocket 3.9 18:00:10 10° SE 18:03:55 19° E 18:07:41 10° ENE
CZ-2C R/B 3.3 17:58:42 10° S 18:03:55 80° WSW 18:09:29 10° NNW
SJ 16-02 2.5 18:00:35 10° SW 18:04:49 47° WNW 18:09:05 10° NNE
Cosmos 990 Rocket 4.1 17:59:57 10° SSW 18:05:05 83° WNW 18:10:17 10° NNE
Cosmos 2227 4.2 17:59:58 10° SSW 18:05:43 85° ESE 18:11:29 10° NNE
Cosmos 1464 Rocket 4.3 18:00:22 10° SSE 18:06:05 44° E 18:11:53 10° NNE
ISS -2.3 18:04:13 10° S 18:06:48 21° SE 18:08:14 16° ESE
Abrixas rocket 1.8 18:06:26 10° WSW 18:09:16 71° SSE 18:11:14 18° E
Okean 2 Rocket 3.7 18:05:39 10° SSE 18:09:45 36° E 18:13:52 10° NNE
SJ-11-01 4.4 18:05:32 10° SSE 18:10:15 81° WSW 18:15:00 10° NNW
Cosmos 1943 3.5 18:04:40 10° NNW 18:10:18 71° WSW 18:15:56 10° SSE
Lacrosse 5 rocket 2.7 18:10:01 10° W 18:14:03 40° NNW 18:18:17 10° NE
Ariane Rocket 3.2 18:10:47 10° SE 18:15:40 51° ENE 18:20:36 10° N
Cosmos 1437 3.6 18:15:11 10° NNW 18:18:05 47° W 18:20:58 10° S
NOSS 3-2 (A) 4.2 18:12:34 10° NW 18:19:48 61° NE 18:26:32 16° ESE
NOSS 2-2 (C) 3.4 18:17:35 10° SSW 18:20:55 43° ESE 18:24:36 10° NE
USA 116 4.3 18:19:00 10° N 18:22:18 54° WNW 18:25:55 10° SSW
Cosmos 1300 Rocket 3.8 18:18:49 10° SSE 18:23:01 46° E 18:27:16 10° NNE
SPOT 3 Rocket 4.4 18:22:58 18° ESE 18:26:01 32° ENE 18:30:33 10° N
MetOp-A 4.3 18:22:25 11° SE 18:27:29 52° ENE 18:32:41 10° N
Cosmos 1898 Rocket 4.2 18:27:12 10° SW 18:32:16 56° WNW 18:37:24 10° NNE
Cosmos 1891 Rocket 4.4 18:27:38 10° S 18:33:45 73° E 18:39:48 10° NNE
Cosmos 1867 3.7 18:28:32 10° NW 18:34:01 78° SW 18:38:37 15° SSE
Cosmos 1536 Rocket 3.7 18:33:52 10° N 18:38:15 56° ENE 18:41:16 19° SSE
USA 234 3.7 18:35:17 10° ENE 18:41:21 39° SE 18:47:23 10° SSW
Cosmos 1626 3.9 18:41:19 10° NNE 18:43:18 17° NE 18:43:18 17° NE
Meteor 2-5 Rocket 4.3 18:40:35 10° N 18:45:48 37° ENE 18:48:05 27° ESE
DMSP B5D2-2 4.1 18:41:07 10° NNE 18:46:21 55° E 18:51:31 10° S
CREW DRAGON DEMO-1 DEB 3.6 18:44:11 10° WNW 18:47:07 43° N 18:47:59 33° NE
CZ-4 R/B 4.5 18:48:04 10° SW 18:50:40 16° W 18:53:18 10° NW
Cosmos 2151 Rocket 3.5 18:46:28 10° S 18:50:52 67° E 18:55:20 10° NNE
USA 186 2.3 18:48:48 16° S 18:51:08 56° W 18:54:19 10° NNW
Cosmos 372 Rocket 3.9 18:46:04 10° SSW 18:51:19 82° ESE 18:56:34 10° NNE
Cosmos 1025 Rocket 3.1 18:47:52 10° NNW 18:52:16 81° W 18:56:09 13° S
Cosmos 2150 Rocket 4.1 18:48:30 10° S 18:53:44 56° ESE 18:59:04 10° NNE
NOSS 3-2 (C) 4.1 18:46:39 10° NW 18:53:55 63° NE 18:58:44 27° ESE
Nadezhda 4 Rocket 3.9 18:52:52 10° N 18:59:02 85° E 19:04:42 12° S
Cosmos 1805 4.1 19:00:43 33° ENE 19:00:43 33° ENE 19:03:29 10° NNE
OBJECT-B 0.6 19:01:23 68° ESE 19:01:33 70° ENE 19:04:48 10° N
Cosmos 2082 Rocket 4.0 18:59:20 10° N 19:02:53 17° NE 19:04:43 14° ENE
Cosmos 2034 Rocket 3.9 18:56:33 10° S 19:02:55 82° E 19:09:18 10° N
MOS 1 Rocket 4.4 18:58:59 10° N 19:03:16 43° WNW 19:07:22 10° SW
Cosmos 1125 Rocket 3.7 18:59:40 10° S 19:04:43 47° ESE 19:09:49 10° NNE
FREGAT/IRIS 3.2 19:05:32 42° WSW 19:05:44 44° W 19:08:16 10° NNW
Exosat Rocket 3.8 19:00:44 10° S 19:06:06 46° ESE 19:10:52 10° NE
Cosmos 1674 2.5 19:05:12 10° N 19:09:05 76° E 19:09:42 59° SE
COSMOS 2406 4.1 19:05:55 10° NNW 19:10:58 32° NE 19:12:17 29° ENE
Meteor 1-24 Rocket 4.0 19:07:46 10° N 19:13:03 46° ENE 19:14:11 40° ESE
SL-14 R/B 4.4 19:13:30 10° N 19:16:10 30° NE 19:16:10 30° NE
ERS-1 Rocket 4.5 19:17:24 21° NE 19:17:24 21° NE 19:20:55 10° NNE
NOSS 2-2 (E) 4.2 19:14:51 10° WSW 19:18:18 46° NW 19:22:19 10° NE
Resurs 01 Rocket 1.6 19:19:17 58° ESE 19:19:50 65° ENE 19:24:16 10° N
H-2A R/B 4.3 19:16:50 10° SW 19:20:43 23° W 19:24:40 10° NW
ATLAS 2AS CENTAUR R/B 3.8 19:16:00 10° S 19:24:48 31° E 19:29:47 10° NE
CZ-2C R/B 3.0 19:18:19 10° N 19:23:48 68° WNW 19:29:20 10° SSW
SJ-6B 4.1 19:21:47 19° SSW 19:23:57 36° W 19:27:27 10° NNW
Landsat 7 4.4 19:25:47 40° ENE 19:25:47 40° ENE 19:30:04 10° N
Lacrosse 4 Rocket 3.6 19:23:50 10° N 19:25:53 13° NE 19:25:53 13° NE
KORONAS-FOTON 4.0 19:22:46 10° NNW 19:26:42 71° W 19:27:14 60° SSW
NOSS 2-2 (D) 4.1 19:23:18 10° WSW 19:26:44 47° NW 19:30:42 10° NE
Cosmos 1766 4.2 19:33:39 37° NNE 19:33:39 37° NNE 19:36:10 10° NNE
SPOT 1/Viking Rocket 4.1 19:33:46 41° ENE 19:33:46 41° ENE 19:38:30 10° N
CENTAUR R/B 3.1 19:26:49 10° NW 19:34:51 88° NE 19:38:32 40° SE
Cosmos 1844 3.5 19:29:28 10° SSW 19:35:09 74° ESE 19:40:49 10° NNE
IGS 5A 4.4 19:37:09 38° NNE 19:37:09 38° NNE 19:40:07 10° N
Cosmos 1634 Rocket 3.9 19:34:23 42° SSE 19:36:32 68° E 19:42:41 10° NNE
ARIANE 5 R/B 2.9 19:37:42 52° NE 19:37:42 52° NE 19:41:23 10° N
SWAS 4.5 19:34:45 10° NNW 19:39:04 74° WSW 19:39:04 74° WSW
Cosmos 2263 Rocket 4.3 19:35:59 10° W 19:40:36 26° NW 19:45:14 10° N
ATLAS 3B R/B 3.3 19:34:21 10° NW 19:40:52 46° NE 19:42:49 37° ENE
Cosmos 1269 Rocket 3.9 19:35:49 10° NNW 19:41:09 69° ENE 19:41:30 66° E
Cosmos 2285 Rocket 3.8 19:35:06 10° SSW 19:41:23 79° ESE 19:47:45 10° NNE
MetOp-B 4.0 19:41:10 65° ESE 19:41:46 72° ENE 19:47:07 10° N
USA 238 DEB 4.1 19:35:27 10° NW 19:42:34 64° SW 19:45:37 37° S
USA 238 4.1 19:35:33 10° NW 19:42:41 64° SW 19:45:42 37° S
ISS -1.6 19:39:55 10° WSW 19:41:15 22° WSW 19:41:15 22° WSW
Cosmos 1844 Rocket 2.7 19:41:35 10° SSW 19:47:09 76° WNW 19:52:46 10° NNE
Spot 2 Rocket 3.6 19:48:07 57° NE 19:48:07 57° NE 19:52:45 10° N
Okean 1 Rocket 3.4 19:51:22 56° WSW 19:51:59 63° WNW 19:56:28 10° N
Lacrosse 5 rocket 3.2 19:50:22 10° WNW 19:54:09 27° N 19:55:13 24° NNE
Cosmos 1092 Rocket 4.4 19:51:20 10° NNW 19:57:22 59° W 20:00:15 31° SSW
Cosmos 2026 Rocket 4.2 19:58:38 10° NNW 20:04:57 68° W 20:06:56 45° SSW
CZ-2C R/B 4.3 20:00:43 10° N 20:05:04 54° WNW 20:05:30 51° W
Meteor 2-19 Rocket 4.4 19:59:37 10° N 20:05:39 68° ENE 20:05:39 68° ENE
Cosmos 1833 Rocket 3.0 20:02:37 10° NNW 20:07:46 55° NE 20:07:46 55° NE
Terra 3.3 20:19:13 28° NNE 20:19:13 28° NNE 20:21:47 10° N
Cosmos 1626 4.3 20:15:53 10° NNW 20:17:51 26° NW 20:17:51 26° NW
Cosmos 2279 Rocket 3.9 20:20:51 89° ENE 20:20:51 89° ENE 20:27:09 10° N
Cosmos 2142 Rocket 4.5 20:21:19 69° SW 20:22:03 79° W 20:28:19 10° N
USA 234 3.2 20:19:22 16° NE 20:24:43 79° NNW 20:31:16 10° WSW
SPOT 5 3.9 20:40:09 46° N 20:40:09 46° N 20:43:52 10° NNW
Cosmos 2082 Rocket 3.0 20:42:29 10° NNW 20:46:33 46° N 20:46:33 46° N
COSMOS 2406 4.1 20:50:03 10° NW 20:54:20 45° WNW 20:54:20 45° WNW
ERS-1 Rocket 4.2 20:57:24 38° NW 20:57:24 38° NW 21:00:35 10° NNW
Resurs 01 Rocket 4.1 20:56:51 16° W 20:56:51 16° W 20:59:27 10° NW
Cosmos 2098 Rocket 4.5 20:57:09 10° NNW 21:03:50 60° WNW 21:03:50 60° WNW
Lacrosse 4 Rocket 4.1 21:01:15 10° NNW 21:02:11 16° NNW 21:02:11 16° NNW
ATLAS 2AS CENTAUR R/B 3.1 21:11:59 61° WSW 21:13:27 74° NW 21:21:20 10° NE
Cosmos 2278 Rocket 4.0 21:22:33 25° NNE 21:22:33 25° NNE 21:24:49 10° NNE
CENTAUR R/B 4.4 21:18:15 10° NW 21:25:04 29° WSW 21:25:44 29° WSW
ATLAS 3B R/B 3.5 21:25:06 10° NW 21:30:03 45° WNW 21:30:03 45° WNW
Lacrosse 5 rocket 4.4 21:29:57 10° NW 21:30:50 15° NW 21:30:50 15° NW
Terra 4.4 21:58:06 16° NW 21:58:06 16° NW 21:59:18 10° NW
USA 234 4.1 22:01:11 10° ENE 22:07:20 46° N 22:13:30 10° W
Cosmos 2369 Rocket 4.4 22:59:19 19° NNE 22:59:19 19° NNE 23:00:51 10° NNE
CZ-4C R/B 4.2 23:02:00 26° NNE 23:02:00 26° NNE 23:05:01 10° NE
Cosmos 2278 Rocket 4.5 23:04:22 18° NW 23:04:22 18° NW 23:08:02 10° N
ATLAS 2AS CENTAUR R/B 4.4 22:59:08 12° W 23:05:43 33° NNW 23:12:33 10° NE
Cosmos 2227 Rocket 4.2 23:38:56 10° N 23:43:17 22° NE 23:43:30 22° NE
USA 234 4.1 23:43:31 10° E 23:49:38 45° N 23:55:47 10° WNW
